Previsão horária em Alhos Vedros

Hoje, 24 Novembro, Terça-feira

Tempo Temperatura Precipitação Vento Pressão Humidade
00:00 +12°C° 0 mm 0 m/s 767 mmHg 75%
01:00 +12°C° 0 mm 0 m/s 767 mmHg 76%
02:00 +11°C° 0 mm 0 m/s 767 mmHg 78%
03:00 +11°C° 0 mm 0 m/s 767 mmHg 79%
04:00 +11°C° 0 mm 0 m/s 766 mmHg 80%
05:00 +11°C° 0 mm 0 m/s 766 mmHg 82%
06:00 +12°C° 0 mm 1 m/s 766 mmHg 80%
07:00 +13°C° 0 mm 1 m/s 767 mmHg 78%
08:00 +14°C° 0 mm 1 m/s 767 mmHg 75%
09:00 +15°C° 0 mm 1 m/s 767 mmHg 71%
10:00 +17°C° 0 mm 2 m/s 766 mmHg 66%
11:00 +19°C° 0 mm 1 m/s 766 mmHg 62%
12:00 +18°C° 0 mm 2 m/s 765 mmHg 63%
13:00 +18°C° 0 mm 3 m/s 765 mmHg 63%
14:00 +18°C° 0 mm 3 m/s 764 mmHg 63%
15:00 +17°C° 0 mm 3 m/s 764 mmHg 69%
16:00 +16°C° 0 mm 3 m/s 764 mmHg 75%
17:00 +14°C° 0 mm 3 m/s 764 mmHg 81%
18:00 +14°C° 0 mm 3 m/s 763 mmHg 82%
19:00 +14°C° 0 mm 4 m/s 763 mmHg 83%
20:00 +14°C° 0 mm 4 m/s 763 mmHg 84%
21:00 +15°C° 0.5 mm 5 m/s 762 mmHg 84%
22:00 +15°C° 0.5 mm 6 m/s 762 mmHg 83%
23:00 +15°C° 0.5 mm 6 m/s 761 mmHg 82%

Amanhã, 25 Novembro, Quarta-feira

Tempo Temperatura Precipitação Vento Pressão Humidade
00:00 +15°C° 2.4 mm 5 m/s 761 mmHg 85%
01:00 +15°C° 2.4 mm 5 m/s 760 mmHg 87%
02:00 +14°C° 2.4 mm 4 m/s 760 mmHg 90%
03:00 +14°C° 1.5 mm 4 m/s 759 mmHg 91%
04:00 +14°C° 1.5 mm 4 m/s 759 mmHg 92%
05:00 +13°C° 1.5 mm 4 m/s 759 mmHg 92%
06:00 +13°C° 1.6 mm 4 m/s 759 mmHg 91%
07:00 +13°C° 1.6 mm 4 m/s 759 mmHg 89%
08:00 +12°C° 1.6 mm 4 m/s 759 mmHg 87%
09:00 +13°C° 0.1 mm 4 m/s 758 mmHg 83%
10:00 +13°C° 0.1 mm 4 m/s 758 mmHg 78%
11:00 +14°C° 0.1 mm 3 m/s 758 mmHg 74%
12:00 +14°C° 0.2 mm 4 m/s 757 mmHg 73%
13:00 +14°C° 0.2 mm 4 m/s 757 mmHg 72%
14:00 +13°C° 0.2 mm 4 m/s 756 mmHg 72%
15:00 +13°C° 0.1 mm 4 m/s 756 mmHg 73%
16:00 +12°C° 0.1 mm 4 m/s 756 mmHg 75%
17:00 +11°C° 0.1 mm 4 m/s 755 mmHg 76%
18:00 +11°C° 0 mm 3 m/s 755 mmHg 76%
19:00 +11°C° 0 mm 3 m/s 755 mmHg 77%
20:00 +11°C° 0 mm 3 m/s 755 mmHg 77%
21:00 +10°C° 0 mm 3 m/s 755 mmHg 77%
22:00 +10°C° 0 mm 3 m/s 755 mmHg 78%
23:00 +10°C° 0 mm 3 m/s 754 mmHg 78%

Depois de amanhã, 26 Novembro, Quinta-feira

Tempo Temperatura Precipitação Vento Pressão Humidade
00:00 +10°C° 0 mm 3 m/s 754 mmHg 79%
01:00 +10°C° 0 mm 3 m/s 753 mmHg 80%
02:00 +10°C° 0 mm 3 m/s 753 mmHg 82%
03:00 +10°C° 0.1 mm 3 m/s 753 mmHg 82%
04:00 +10°C° 0.1 mm 3 m/s 752 mmHg 83%
05:00 +10°C° 0.1 mm 3 m/s 752 mmHg 84%
06:00 +10°C° 0.1 mm 2 m/s 752 mmHg 84%
07:00 +10°C° 0.1 mm 2 m/s 752 mmHg 84%
08:00 +12°C° 0.1 mm 2 m/s 753 mmHg 84%
09:00 +12°C° 0.1 mm 1 m/s 753 mmHg 80%
10:00 +13°C° 0.1 mm 1 m/s 753 mmHg 76%
11:00 +14°C° 0.1 mm 1 m/s 753 mmHg 72%
12:00 +14°C° 0.1 mm 1 m/s 753 mmHg 71%
13:00 +15°C° 0.1 mm 1 m/s 752 mmHg 70%
14:00 +15°C° 0.1 mm 1 m/s 752 mmHg 69%
15:00 +14°C° 0 mm 1 m/s 753 mmHg 73%
16:00 +13°C° 0 mm 1 m/s 753 mmHg 77%
17:00 +12°C° 0 mm 1 m/s 753 mmHg 81%
18:00 +12°C° 0 mm 1 m/s 754 mmHg 82%
19:00 +12°C° 0 mm 1 m/s 754 mmHg 82%
20:00 +12°C° 0 mm 2 m/s 755 mmHg 83%
21:00 +12°C° 0 mm 2 m/s 755 mmHg 84%
22:00 +11°C° 0 mm 3 m/s 755 mmHg 86%
23:00 +11°C° 0 mm 3 m/s 755 mmHg 87%

27 Novembro, Sexta-feira

Tempo Temperatura Precipitação Vento Pressão Humidade
00:00 +10°C° 0 mm 3 m/s 755 mmHg 88%
01:00 +10°C° 0 mm 3 m/s 755 mmHg 89%
02:00 +8°C° 0 mm 4 m/s 755 mmHg 90%
03:00 +9°C° 0 mm 3 m/s 755 mmHg 90%
04:00 +9°C° 0 mm 3 m/s 755 mmHg 90%
05:00 +9°C° 0 mm 3 m/s 755 mmHg 91%
06:00 +9°C° 0 mm 3 m/s 755 mmHg 89%
07:00 +9°C° 0 mm 3 m/s 755 mmHg 88%
08:00 +10°C° 0 mm 3 m/s 755 mmHg 86%
09:00 +11°C° 0 mm 3 m/s 755 mmHg 82%
10:00 +12°C° 0 mm 3 m/s 755 mmHg 78%
11:00 +13°C° 0 mm 3 m/s 755 mmHg 74%
12:00 +14°C° 0 mm 3 m/s 755 mmHg 71%
13:00 +15°C° 0 mm 4 m/s 755 mmHg 69%
14:00 +17°C° 0 mm 4 m/s 754 mmHg 66%
15:00 +15°C° 0 mm 4 m/s 755 mmHg 72%
16:00 +13°C° 0 mm 4 m/s 755 mmHg 78%
17:00 +12°C° 0 mm 4 m/s 755 mmHg 84%
18:00 +12°C° 0 mm 4 m/s 755 mmHg 86%
19:00 +12°C° 0 mm 4 m/s 755 mmHg 87%
20:00 +12°C° 0 mm 3 m/s 756 mmHg 89%
21:00 +11°C° 0 mm 3 m/s 756 mmHg 88%
22:00 +11°C° 0 mm 3 m/s 756 mmHg 87%
23:00 +11°C° 0 mm 3 m/s 756 mmHg 86%

28 Novembro, Sábado

Tempo Temperatura Precipitação Vento Pressão Humidade
00:00 +11°C° 0 mm 3 m/s 755 mmHg 87%
01:00 +11°C° 0 mm 3 m/s 755 mmHg 87%
02:00 +12°C° 0 mm 2 m/s 755 mmHg 87%
03:00 +12°C° 0 mm 2 m/s 755 mmHg 88%
04:00 +12°C° 0 mm 2 m/s 755 mmHg 89%
05:00 +12°C° 0 mm 1 m/s 755 mmHg 89%
06:00 +13°C° 0 mm 2 m/s 755 mmHg 88%
07:00 +13°C° 0 mm 2 m/s 755 mmHg 87%
08:00 +14°C° 0 mm 2 m/s 755 mmHg 85%
09:00 +14°C° 0.1 mm 3 m/s 755 mmHg 80%
10:00 +17°C° 0.1 mm 3 m/s 755 mmHg 74%
11:00 +18°C° 0.1 mm 4 m/s 755 mmHg 69%
12:00 +17°C° 0 mm 5 m/s 754 mmHg 69%
13:00 +17°C° 0 mm 5 m/s 753 mmHg 68%
14:00 +17°C° 0 mm 6 m/s 753 mmHg 68%
15:00 +16°C° 0.1 mm 7 m/s 753 mmHg 70%
16:00 +16°C° 0.1 mm 7 m/s 752 mmHg 73%
17:00 +15°C° 0.1 mm 7 m/s 752 mmHg 76%
18:00 +15°C° 2 mm 7 m/s 752 mmHg 80%
19:00 +14°C° 2 mm 7 m/s 752 mmHg 84%
20:00 +13°C° 2 mm 8 m/s 752 mmHg 88%
21:00 +14°C° 0.9 mm 6 m/s 752 mmHg 85%
22:00 +14°C° 0.9 mm 5 m/s 752 mmHg 82%
23:00 +13°C° 0.9 mm 4 m/s 752 mmHg 79%

29 Novembro, Domingo

Tempo Temperatura Precipitação Vento Pressão Humidade
00:00 +13°C° 0.1 mm 4 m/s 752 mmHg 79%
01:00 +12°C° 0.1 mm 4 m/s 752 mmHg 78%
02:00 +12°C° 0.1 mm 4 m/s 752 mmHg 78%
03:00 +11°C° 0.1 mm 4 m/s 752 mmHg 79%
04:00 +11°C° 0.1 mm 4 m/s 752 mmHg 80%
05:00 +11°C° 0.1 mm 4 m/s 752 mmHg 80%
06:00 +12°C° 0.1 mm 5 m/s 752 mmHg 79%
07:00 +11°C° 0.1 mm 6 m/s 753 mmHg 78%
08:00 +11°C° 0.1 mm 6 m/s 753 mmHg 77%
09:00 +12°C° 0.1 mm 7 m/s 753 mmHg 73%
10:00 +14°C° 0.1 mm 7 m/s 753 mmHg 69%
11:00 +15°C° 0.1 mm 7 m/s 753 mmHg 65%
12:00 +15°C° 0.3 mm 7 m/s 753 mmHg 64%
13:00 +16°C° 0.3 mm 8 m/s 753 mmHg 64%
14:00 +16°C° 0.3 mm 8 m/s 753 mmHg 63%
15:00 +15°C° 0.3 mm 7 m/s 753 mmHg 67%
16:00 +14°C° 0.3 mm 7 m/s 753 mmHg 71%
17:00 +12°C° 0.3 mm 7 m/s 753 mmHg 75%
18:00 +11°C° 0 mm 7 m/s 753 mmHg 77%
19:00 +11°C° 0 mm 7 m/s 753 mmHg 78%
20:00 +11°C° 0 mm 7 m/s 753 mmHg 80%
21:00 +11°C° 0 mm 7 m/s 753 mmHg 81%
22:00 +11°C° 0 mm 7 m/s 753 mmHg 82%
23:00 +11°C° 0 mm 8 m/s 753 mmHg 82%
Mostrar mais